[ show orbit diagram ]
Orbital Elements at Epoch 2459200.5 (2020-Dec-17.0) TDB
Reference: JPL 71 (heliocentric ecliptic J2000)
Element | Value | Uncertainty (1-sigma) | Units |
e | .4346564120804066 | 1.4955e-05 | |
a | 67.93650016251242 | 0.0014201 | au |
q | 38.40746475257481 | 0.0016983 | au |
i | 43.97236486335167 | 0.00014008 | deg |
node | 35.97999313970307 | 6.6574e-05 | deg |
peri | 151.5544928337574 | 0.0048833 | deg |
M | 206.4127606081266 | 0.010983 | deg |
tp | 2546458.612667809328 (2259-Nov-13.11266781) | 5.523 | TDB |
period | 204528.1931284812 559.97 | 6.4129 0.01756 | d yr |
n | .001760148537438328 | 5.5188e-08 | deg/d |
Q | 97.46553557245002 | 0.0020373 | au |
|
| | Orbit Determination Parameters
Additional Information
|
[ show covariance matrix ]
Physical Parameter Table
Parameter |
Symbol |
Value |
Units |
Sigma |
Reference |
Notes |
absolute magnitude |
H |
-1.11 |
|
n/a |
E2021B55 |
|
rotation period |
rot_per |
25.9 |
h |
n/a |
LCDB (Rev. 2020-October); Warner et al., 2009 |
Result based on less than full coverage, so that the period may be wrong by 30 percent or so. Published Reference List: [Roe, H. G.; Pike, R.E.; Brown, M.E. (2008) Icarus 198, 459-464.] |
|
136199 Eris | Discovered 2003 Oct. 21 by M. E. Brown, C. A. Trujillo and D. Rabinowitz at Palomar. |
Eris is the Greek goddess of discord and strife. She stirs up jealousy and envy to cause fighting and anger among men. At the wedding of Peleus and Thetis all the gods were invited with the exception of Eris, and, enraged at her exclusion, she spitefully caused a quarrel among the goddesses that led to the Trojan war. |
NOTE: some special characters may not display properly (any characters within {} are an attempt to place the proper accent above a character) |
Reference: 20061009/MPCPages.arc | Last Updated: 2006-10-14 |
|
|
|